Pinedale, WY

12:11 PM MST on December 18, 2017 (GMT -0700)
Wenz

Weather History for KPNA - January, 2014

Change the Weather History Date:

Monday, January 20, 2014

  Actual Average (KBPI) Record (KBPI)
Temperature  
Mean Temperature 16 °F -  
Max Temperature 33 °F 23 °F 46 °F (1994)
Min Temperature 0 °F 0 °F -37 °F (1984)
Degree Days  
Heating Degree Days 48    
Moisture  
Dew Point 5 °F    
Average Humidity 71    
Maximum Humidity 92    
Minimum Humidity 41    
Precipitation  
Precipitation 0.00 in - - ()
Sea Level Pressure  
Sea Level Pressure 30.37 in    
Wind  
Wind Speed 4 mph (NW)    
Max Wind Speed 16 mph    
Max Gust Speed -    
Visibility 10 miles    
Events      
Averages and records for this station are not official NWS values.
T = Trace of Precipitation, MM = Missing Value Source: NWS Daily Summary

Daily Weather History Graph

Daily Weather History Graph

Search for Another Location

Airport or City:

Trip Planner

Search our weather history database for the weather conditions in past years. The results will help you decide how hot, cold, wet, or windy it might be!

Date:

Astronomy

Jan. 20, 2014 Rise Set
Actual Time 7:44 AM MST 5:16 PM MST
Civil Twilight 7:13 AM MST 5:47 PM MST
Nautical Twilight 6:38 AM MST 6:22 PM MST
Astronomical Twilight 6:04 AM MST 6:56 PM MST
Moon 10:02 PM MST (1/20) 9:38 AM MST (1/20)
Length of Visible Light 10h 34m
Length of Day
9h 32m
Waning Gibbous, 82% of the Moon is Illuminated
Jan 20
Waning Gibbous
Jan 23
Last Quarter
Jan 30
New
Feb 6
First Quarter
Feb 14
Full

Hourly Weather History & Observations

Time (MST) Temp. Windchill Dew Point Humidity Pressure Visibility Wind Dir Wind Speed Gust Speed Precip Events Conditions
12:15 AM 5.0 °F -2.1 °F -0.4 °F 78% 30.19 in 10.0 mi North 3.5 mph - N/A   Clear
12:35 AM 3.2 °F - -0.4 °F 85% 30.19 in 10.0 mi Calm Calm - N/A   Clear
12:55 AM 5.0 °F -5.6 °F -0.4 °F 78% 30.19 in 10.0 mi West 5.8 mph - N/A   Scattered Clouds
1:15 AM 5.0 °F -4.1 °F -0.4 °F 78% 30.19 in 10.0 mi NW 4.6 mph - N/A   Scattered Clouds
1:35 AM 5.0 °F -4.1 °F -0.4 °F 78% 30.19 in 10.0 mi NNW 4.6 mph - N/A   Scattered Clouds
1:55 AM 5.0 °F - 1.4 °F 85% 30.19 in 10.0 mi Calm Calm - N/A   Scattered Clouds
2:15 AM 8.6 °F - 3.2 °F 79% 30.20 in 10.0 mi Calm Calm - N/A   Clear
2:35 AM 6.8 °F -4.8 °F 3.2 °F 85% 30.20 in 10.0 mi West 6.9 mph - N/A   Scattered Clouds
2:55 AM 6.8 °F -0.1 °F 1.4 °F 79% 30.21 in 10.0 mi West 3.5 mph - N/A   Clear
3:15 AM 8.6 °F - 3.2 °F 79% 30.22 in 10.0 mi Calm Calm - N/A   Scattered Clouds
3:35 AM 5.0 °F -4.1 °F -0.4 °F 78% 30.23 in 10.0 mi West 4.6 mph - N/A   Scattered Clouds
3:55 AM 5.0 °F -5.6 °F 1.4 °F 85% 30.24 in 10.0 mi NW 5.8 mph - N/A   Clear
4:15 AM 8.6 °F 0.1 °F 1.4 °F 73% 30.24 in 10.0 mi NW 4.6 mph - N/A   Clear
4:35 AM 5.0 °F -4.1 °F -0.4 °F 78% 30.26 in 10.0 mi NW 4.6 mph - N/A   Clear
4:55 AM 5.0 °F -5.6 °F -0.4 °F 78% 30.26 in 10.0 mi West 5.8 mph - N/A   Clear
5:15 AM 5.0 °F -8.1 °F -0.4 °F 78% 30.26 in 10.0 mi West 8.1 mph - N/A   Clear
5:35 AM 5.0 °F -5.6 °F -0.4 °F 78% 30.26 in 10.0 mi WNW 5.8 mph - N/A   Scattered Clouds
5:55 AM 5.0 °F -2.1 °F -0.4 °F 78% 30.27 in 10.0 mi NW 3.5 mph - N/A   Scattered Clouds
6:15 AM 10.4 °F 0.8 °F 1.4 °F 67% 30.28 in 10.0 mi North 5.8 mph - N/A   Scattered Clouds
6:35 AM 10.4 °F -0.4 °F 1.4 °F 67% 30.29 in 10.0 mi NW 6.9 mph - N/A   Scattered Clouds
6:55 AM 10.4 °F -4.1 °F 1.4 °F 67% 30.29 in 10.0 mi West 11.5 mph - N/A   Clear
7:15 AM 10.4 °F -6.6 °F 3.2 °F 73% 30.29 in 10.0 mi West 16.1 mph - N/A   Clear
7:35 AM 12.2 °F 0.7 °F 5.0 °F 73% 30.30 in 10.0 mi WNW 8.1 mph - N/A   Clear
7:55 AM 14.0 °F 5.1 °F 5.0 °F 67% 30.32 in 10.0 mi NE 5.8 mph - N/A   Clear
8:15 AM 5.0 °F -8.1 °F -0.4 °F 78% 30.34 in 10.0 mi ESE 8.1 mph - N/A   Clear
8:35 AM 6.8 °F -2.0 °F -0.4 °F 72% 30.35 in 10.0 mi SE 4.6 mph - N/A   Clear
8:55 AM 10.4 °F 2.2 °F 1.4 °F 67% 30.36 in 10.0 mi East 4.6 mph - N/A   Clear
9:15 AM 12.2 °F - 1.4 °F 62% 30.37 in 10.0 mi Calm Calm - N/A   Clear
9:35 AM 14.0 °F - 3.2 °F 62% 30.37 in 10.0 mi Calm Calm - N/A   Clear
9:55 AM 14.0 °F 8.2 °F 3.2 °F 62% 30.38 in 10.0 mi West 3.5 mph - N/A   Clear
10:15 AM 17.6 °F 12.3 °F 6.8 °F 63% 30.40 in 10.0 mi NNW 3.5 mph - N/A   Clear
10:35 AM 17.6 °F - 5.0 °F 58% 30.42 in 10.0 mi Calm Calm - N/A   Clear
10:55 AM 21.2 °F - 5.0 °F 50% 30.43 in 10.0 mi Calm Calm - N/A   Clear
11:15 AM 24.8 °F - 5.0 °F 43% 30.42 in 10.0 mi Calm Calm - N/A   Clear
11:35 AM 23.0 °F 15.8 °F 8.6 °F 54% 30.43 in 10.0 mi East 5.8 mph - N/A   Clear
11:55 AM 23.0 °F 15.8 °F 8.6 °F 54% 30.42 in 10.0 mi East 5.8 mph - N/A   Clear
12:15 PM 24.8 °F 20.5 °F 10.4 °F 54% 30.43 in 10.0 mi East 3.5 mph - N/A   Clear
12:35 PM 28.4 °F - 10.4 °F 47% 30.42 in 10.0 mi Calm Calm - N/A   Mostly Cloudy
12:55 PM 30.2 °F - 10.4 °F 44% 30.42 in 10.0 mi Calm Calm - N/A   Scattered Clouds
1:15 PM 28.4 °F - 12.2 °F 51% 30.42 in 10.0 mi Calm Calm - N/A   Clear
1:35 PM 30.2 °F - 12.2 °F 47% 30.42 in 10.0 mi Calm Calm - N/A   Clear
1:55 PM 33.8 °F - 12.2 °F 41% 30.42 in 10.0 mi Calm Calm - N/A   Clear
2:15 PM 32.0 °F 28.7 °F 15.8 °F 51% 30.42 in 10.0 mi East 3.5 mph - N/A   Clear
2:35 PM 32.0 °F 28.7 °F 14.0 °F 48% 30.42 in 10.0 mi East 3.5 mph - N/A   Clear
2:55 PM 32.0 °F 28.7 °F 17.6 °F 55% 30.42 in 10.0 mi East 3.5 mph - N/A   Clear
3:15 PM 32.0 °F - 17.6 °F 55% 30.43 in 10.0 mi Calm Calm - N/A   Clear
3:35 PM 32.0 °F - 17.6 °F 55% 30.43 in 10.0 mi Calm Calm - N/A   Clear
3:55 PM 32.0 °F - 15.8 °F 51% 30.43 in 10.0 mi Calm Calm - N/A   Clear
4:15 PM 33.8 °F - 15.8 °F 48% 30.43 in 10.0 mi Calm Calm - N/A   Clear
4:35 PM 32.0 °F - 15.8 °F 51% 30.43 in 10.0 mi Calm Calm - N/A   Clear
4:55 PM 28.4 °F - 17.6 °F 64% 30.43 in 10.0 mi Calm Calm - N/A   Clear
5:15 PM 24.8 °F - 15.8 °F 69% 30.43 in 10.0 mi Calm Calm - N/A   Clear
5:35 PM 24.8 °F - 15.8 °F 69% 30.43 in 10.0 mi Calm Calm - N/A   Clear
5:55 PM 19.4 °F 14.3 °F 12.2 °F 74% 30.43 in 10.0 mi WNW 3.5 mph - N/A   Clear
6:15 PM 12.2 °F - 6.8 °F 79% 30.45 in 10.0 mi Calm Calm - N/A   Clear
6:35 PM 14.0 °F - 10.4 °F 86% 30.45 in 10.0 mi Calm Calm - N/A   Clear
6:55 PM 12.2 °F 4.3 °F 10.4 °F 92% 30.45 in 10.0 mi West 4.6 mph - N/A   Clear
7:15 PM 10.4 °F 2.2 °F 8.6 °F 92% 30.45 in 10.0 mi WNW 4.6 mph - N/A   Clear
7:35 PM 8.6 °F -1.3 °F 5.0 °F 85% 30.45 in 10.0 mi WNW 5.8 mph - N/A   Scattered Clouds
7:55 PM 3.2 °F -6.2 °F 1.4 °F 92% 30.46 in 10.0 mi WNW 4.6 mph - N/A   Clear
8:15 PM 5.0 °F -8.1 °F 3.2 °F 92% 30.46 in 10.0 mi WNW 8.1 mph - N/A   Clear
8:35 PM 3.2 °F -9.1 °F 1.4 °F 92% 30.46 in 10.0 mi NW 6.9 mph - N/A   Clear
8:55 PM 3.2 °F -4.2 °F -0.4 °F 85% 30.46 in 10.0 mi WNW 3.5 mph - N/A   Clear
9:15 PM 3.2 °F -7.8 °F 1.4 °F 92% 30.47 in 10.0 mi WNW 5.8 mph - N/A   Clear
9:35 PM 1.4 °F -12.5 °F -0.4 °F 92% 30.47 in 10.0 mi West 8.1 mph - N/A   Clear
9:55 PM 1.4 °F -11.3 °F -0.4 °F 92% 30.47 in 10.0 mi WNW 6.9 mph - N/A   Scattered Clouds
10:15 PM 1.4 °F -11.3 °F -0.4 °F 92% 30.47 in 10.0 mi WNW 6.9 mph - N/A   Scattered Clouds
10:35 PM -0.4 °F -14.7 °F -4.0 °F 85% 30.47 in 10.0 mi NW 8.1 mph - N/A   Scattered Clouds
10:55 PM 1.4 °F -12.5 °F -2.2 °F 85% 30.47 in 10.0 mi NW 8.1 mph - N/A   Scattered Clouds
11:15 PM 1.4 °F -11.3 °F -4.0 °F 78% 30.48 in 10.0 mi NW 6.9 mph - N/A   Clear
11:35 PM 1.4 °F -13.5 °F -4.0 °F 78% 30.48 in 10.0 mi NW 9.2 mph - N/A   Clear
11:55 PM -0.4 °F -14.7 °F -4.0 °F 85% 30.48 in 10.0 mi West 8.1 mph - N/A   Clear